Pensacola, FL

2:55 AM CST on February 21, 2017 (GMT -0600)
Pensacola Regional

Weather History for KPNS - September, 2013

Change the Weather History Date:

Wednesday, September 25, 2013

  Actual Average Record
Temperature  
Mean Temperature 80 °F 76 °F  
Max Temperature 89 °F 85 °F 94 °F (2016)
Min Temperature 71 °F 68 °F 51 °F (1975)
Cooling Degree Days 15 11  
Month to date cooling degree days 417 351  
Year to date cooling degree days 2399 2318  
Growing Degree Days 31 (Base 50)    
Moisture  
Dew Point 71 °F    
Average Humidity 73    
Maximum Humidity 94    
Minimum Humidity 52    
Precipitation  
Precipitation 0.06 in 0.20 in 5.88 in (2002)
Month to date precipitation 7.20 5.02  
Year to date precipitation 63.65 49.79  
Sea Level Pressure  
Sea Level Pressure 29.79 in    
Wind  
Wind Speed 4 mph (NNW)    
Max Wind Speed 12 mph    
Max Gust Speed 15 mph    
Visibility 10 miles    
Events      
T = Trace of Precipitation, MM = Missing Value Source: NWS Daily Summary

Daily Weather History Graph

Daily Weather History Graph

Search for Another Location

Airport or City:

Trip Planner

Search our weather history database for the weather conditions in past years. The results will help you decide how hot, cold, wet, or windy it might be!

Date:

Astronomy

Sep. 25, 2013 Rise Set
Actual Time 6:38 AM CDT 6:41 PM CDT
Civil Twilight 6:14 AM CDT 7:05 PM CDT
Nautical Twilight 5:47 AM CDT 7:33 PM CDT
Astronomical Twilight 5:18 AM CDT 8:01 PM CDT
Moon 11:08 PM CDT (9/25) 12:22 PM CDT (9/25)
Length of Visible Light 12h 50m
Length of Day
12h 02m
Waning Gibbous, 64% of the Moon is Illuminated
Sep 25
Waning Gibbous
Sep 26
Last Quarter
Oct 4
New
Oct 11
First Quarter
Oct 18
Full

Hourly Weather History & Observations

Time (CDT) Temp. Heat Index Dew Point Humidity Pressure Visibility Wind Dir Wind Speed Gust Speed Precip Events Conditions
12:08 AM 75.2 °F - 71.6 °F 89% 29.79 in 10.0 mi East 3.5 mph - N/A   Overcast
12:28 AM 73.4 °F - 71.6 °F 94% 29.78 in 10.0 mi Calm Calm - N/A   Scattered Clouds
12:53 AM 73.9 °F - 71.1 °F 91% 29.78 in 10.0 mi Calm Calm - N/A   Clear
1:53 AM 73.9 °F - 71.1 °F 91% 29.78 in 10.0 mi NNE 3.5 mph - N/A   Overcast
2:53 AM 75.0 °F - 72.0 °F 90% 29.77 in 10.0 mi Calm Calm - N/A   Overcast
3:53 AM 75.0 °F - 72.0 °F 90% 29.76 in 10.0 mi Calm Calm - N/A   Overcast
4:53 AM 75.0 °F - 72.0 °F 90% 29.76 in 10.0 mi Calm Calm - N/A   Overcast
5:53 AM 75.0 °F - 72.0 °F 90% 29.77 in 10.0 mi NNE 3.5 mph - N/A   Mostly Cloudy
6:53 AM 75.0 °F - 72.0 °F 90% 29.78 in 10.0 mi NNW 5.8 mph - 0.06 in   Mostly Cloudy
7:10 AM 75.2 °F - 71.6 °F 89% 29.78 in 10.0 mi Calm Calm - N/A   Mostly Cloudy
7:53 AM 75.9 °F - 73.0 °F 91% 29.79 in 10.0 mi NNE 5.8 mph - N/A   Partly Cloudy
8:20 AM 77.0 °F - 73.4 °F 89% 29.79 in 10.0 mi NNE 4.6 mph - N/A   Mostly Cloudy
8:53 AM 78.1 °F - 73.0 °F 84% 29.80 in 10.0 mi NNE 4.6 mph - N/A   Mostly Cloudy
9:53 AM 81.0 °F 86.2 °F 73.9 °F 79% 29.81 in 10.0 mi North 4.6 mph - N/A   Mostly Cloudy
10:51 AM 80.6 °F 85.4 °F 73.4 °F 79% 29.81 in 10.0 mi NW 6.9 mph - N/A   Mostly Cloudy
10:53 AM 81.0 °F 86.2 °F 73.9 °F 79% 29.81 in 10.0 mi NW 6.9 mph - N/A   Mostly Cloudy
11:21 AM 80.6 °F 85.4 °F 73.4 °F 79% 29.81 in 10.0 mi NNW 8.1 mph - N/A   Overcast
11:53 AM 82.0 °F 87.9 °F 73.9 °F 76% 29.81 in 10.0 mi NNW 9.2 mph - N/A   Overcast
12:00 PM 82.4 °F 88.2 °F 73.4 °F 74% 29.81 in 10.0 mi NNW 6.9 mph - N/A   Mostly Cloudy
12:53 PM 84.9 °F 91.4 °F 73.0 °F 67% 29.79 in 10.0 mi Variable 3.5 mph - N/A   Mostly Cloudy
1:53 PM 88.0 °F 92.9 °F 70.0 °F 55% 29.77 in 10.0 mi Variable 3.5 mph - N/A   Scattered Clouds
2:53 PM 89.1 °F 93.7 °F 69.1 °F 52% 29.75 in 10.0 mi NW 6.9 mph - N/A   Partly Cloudy
3:53 PM 89.1 °F 93.7 °F 69.1 °F 52% 29.75 in 10.0 mi NW 6.9 mph - N/A   Clear
4:53 PM 87.1 °F 91.3 °F 69.1 °F 55% 29.76 in 10.0 mi North 5.8 mph - N/A   Clear
5:53 PM 84.0 °F 88.4 °F 70.0 °F 63% 29.77 in 10.0 mi NNW 10.4 mph - N/A   Clear
6:53 PM 79.0 °F - 70.0 °F 74% 29.79 in 10.0 mi NNW 4.6 mph - N/A   Clear
7:53 PM 77.0 °F - 70.0 °F 79% 29.80 in 10.0 mi NNW 3.5 mph - N/A   Clear
8:53 PM 75.9 °F - 69.1 °F 79% 29.81 in 10.0 mi NNW 4.6 mph - N/A   Clear
9:53 PM 73.9 °F - 69.1 °F 85% 29.82 in 10.0 mi NNW 4.6 mph - N/A   Clear
10:53 PM 73.9 °F - 69.1 °F 85% 29.82 in 10.0 mi Calm Calm - N/A   Clear
11:53 PM 72.0 °F - 69.1 °F 91% 29.82 in 10.0 mi Calm Calm - N/A   Clear